Latest Weather Observations for Amberley

IDQ60801

Issued at 8:05 pm EST Monday 22 September 2014 (issued every 30 minutes, with the page automatically refreshed every 10 minutes)

About weather observations | Map of weather stations | Latest weather observations for QLD | Other Formats
Station Details ID: 040004 Name: AMBERLEY AMO Lat: -27.63 Lon: 152.71 Height: 24.2 m
Data from the previous 72 hours. | See also: Recent months at Amberley
Date/Time
EST
Temp
°C
App
Temp
°C
Dew
Point
Rel
Hum
%
Delta-T
°C
Wind Press
QNH
hPa
Press
MSL
hPa
Rain
since 9 am
mm
Dir
 
Spd
km/h
Gust
km/h
Spd
kts
Gust
kts
22/08:00pm 16.9 13.7 11.3 69 3.0 E 19 28 10 15 1028.3 - 0.2
22/07:32pm 17.3 11.9 10.9 66 3.4 ESE 30 48 16 26 1027.9 - 0.2
22/07:30pm 17.4 11.6 10.9 65 3.5 ESE 32 48 17 26 1027.8 - 0.2
22/07:24pm 17.7 12.1 10.3 62 3.9 ESE 30 48 16 26 1027.6 - 0.2
22/07:00pm 17.7 15.3 11.4 66 3.4 E 15 20 8 11 1027.3 - 0.2
22/06:30pm 17.1 15.3 12.0 72 2.8 E 13 19 7 10 1027.1 - 0.2
22/06:00pm 17.2 15.4 12.1 72 2.8 E 13 17 7 9 1026.7 1026.6 0.2
22/05:30pm 17.5 16.4 13.0 75 2.5 NE 11 13 6 7 1026.6 - 0.2
22/05:00pm 17.6 12.6 12.3 71 2.9 ENE 30 43 16 23 1026.5 - 0.2
22/04:30pm 20.0 14.6 10.8 55 5.0 E 30 37 16 20 1025.9 - 0.2
22/04:00pm 20.3 14.8 9.3 49 5.8 E 28 37 15 20 1025.6 - 0.2
22/03:30pm 20.9 16.0 9.9 49 5.9 E 26 35 14 19 1025.6 - 0.2
22/03:00pm 21.1 15.9 10.2 49 5.9 E 28 41 15 22 1025.5 1025.4 0.2
22/02:30pm 21.7 16.4 10.0 47 6.3 ESE 28 41 15 22 1025.4 - 0.2
22/02:00pm 21.7 16.4 9.8 46 6.4 E 28 39 15 21 1025.5 - 0.2
22/01:30pm 21.9 16.0 10.5 48 6.2 ESE 32 41 17 22 1025.8 - 0.2
22/01:00pm 21.4 16.2 10.3 49 6.0 E 28 41 15 22 1026.1 - 0.2
22/12:30pm 21.0 16.4 11.2 53 5.4 E 26 33 14 18 1026.6 - 0.2
22/12:23pm 20.3 15.3 10.9 54 5.1 E 28 46 15 25 1026.6 - 0.2
22/12:00pm 21.8 16.6 10.2 47 6.3 E 28 37 15 20 1026.6 1026.5 0.2
22/11:30am 22.2 16.8 9.5 44 6.8 E 28 39 15 21 1027.1 - 0.2
22/11:00am 21.3 15.2 9.7 47 6.2 ESE 32 46 17 25 1027.6 - 0.2
22/10:30am 21.8 17.5 10.8 49 6.0 E 24 30 13 16 1027.8 - 0.2
22/10:00am 19.2 15.8 13.8 71 3.1 SE 24 33 13 18 1028.0 - 0.2
22/09:30am 20.8 17.0 11.3 54 5.2 SE 22 32 12 17 1027.9 - 0.0
22/09:00am 18.9 15.7 11.4 61 4.1 SE 19 33 10 18 1028.1 1028.0 0.2
22/08:30am 18.9 15.7 11.4 61 4.1 SE 19 28 10 15 1028.0 - 0.2
22/08:00am 18.9 15.7 11.4 61 4.1 SE 19 26 10 14 1027.8 - 0.2
22/07:30am 17.9 14.7 11.2 65 3.6 SE 19 24 10 13 1027.4 - 0.2
22/07:00am 14.5 15.3 12.7 89 1.0 CALM 0 2 0 1 1027.1 - 0.2
22/06:30am 12.2 11.5 11.4 95 0.4 NW 6 7 3 4 1026.9 - 0.2
22/06:00am 11.4 11.7 10.8 96 0.3 WNW 0 0 0 0 1026.7 1026.6 0.2
22/05:52am 11.5 11.9 11.1 97 0.2 CALM 0 0 0 0 1026.7 - 0.2
22/05:42am 11.3 11.5 10.7 96 0.3 CALM 0 0 0 0 1026.6 - 0.2
22/05:30am 11.4 11.7 10.8 96 0.3 CALM 0 0 0 0 1026.5 - 0.2
22/05:00am 11.9 12.3 11.3 96 0.3 CALM 0 0 0 0 1026.1 - 0.2
22/04:30am 11.2 10.7 10.8 97 0.2 WNW 4 9 2 5 1025.8 - 0.2
22/04:22am 11.2 11.5 10.8 97 0.2 CALM 0 0 0 0 1025.8 - 0.2
22/04:06am 11.6 12.0 11.2 97 0.2 CALM 0 0 0 0 1025.6 - 0.2
22/04:00am 11.9 12.4 11.5 97 0.2 CALM 0 0 0 0 1025.4 - 0.2
22/03:45am 11.8 12.2 11.2 96 0.3 CALM 0 0 0 0 1025.3 - 0.2
22/03:30am 13.0 13.8 12.4 96 0.3 CALM 0 0 0 0 1025.4 - 0.2
22/03:22am 13.0 13.9 12.8 99 0.1 CALM 0 0 0 0 1025.5 - 0.2
22/03:16am 13.1 13.9 12.7 97 0.2 CALM 0 0 0 0 1025.5 - 0.2
22/03:00am 13.1 13.9 12.7 97 0.2 CALM 0 0 0 0 1025.7 1025.6 0.2
22/02:52am 12.9 13.7 12.5 97 0.2 CALM 0 0 0 0 1025.8 - 0.2
22/02:30am 13.1 13.9 12.7 97 0.2 CALM 0 0 0 0 1026.1 - 0.2
22/02:00am 13.6 14.5 12.9 95 0.4 CALM 0 0 0 0 1026.5 - 0.2
22/01:30am 13.7 14.6 12.8 94 0.5 CALM 0 0 0 0 1026.7 - 0.2
22/01:00am 14.1 14.3 13.0 93 0.6 WSW 4 9 2 5 1027.0 - 0.2
22/12:30am 14.5 14.1 13.0 91 0.8 SW 7 9 4 5 1027.0 - 0.2
22/12:00am 14.5 14.2 13.2 92 0.7 SW 7 9 4 5 1027.3 1027.2 0.2
 
Date/Time
EST
Temp
°C
App
Temp
°C
Dew
Point
Rel
Hum
%
Delta-T
°C
Wind Press
QNH
hPa
Press
MSL
hPa
Rain
since 9 am
mm
Dir
 
Spd
km/h
Gust
km/h
Spd
kts
Gust
kts
21/11:30pm 14.3 15.2 13.0 92 0.7 CALM 0 0 0 0 1027.6 - 0.2
21/11:22pm 14.4 15.4 13.1 92 0.7 CALM 0 4 0 2 1027.7 - 0.2
21/11:00pm 14.4 13.2 12.9 91 0.8 SSE 11 13 6 7 1027.4 - 0.2
21/10:59pm 14.4 13.2 12.9 91 0.8 SSE 11 13 6 7 1027.5 - 0.2
21/10:30pm 14.9 13.2 12.5 85 1.3 ESE 13 15 7 8 1027.8 - 0.0
21/10:00pm 15.8 12.7 11.7 76 2.2 SSE 19 26 10 14 1027.8 - 0.0
21/09:30pm 16.5 12.7 11.1 70 2.9 SE 22 33 12 18 1027.6 - 0.0
21/09:00pm 17.7 14.6 10.3 62 3.9 SE 17 26 9 14 1027.5 1027.4 0.0
21/08:30pm 17.6 15.9 11.1 65 3.5 ESE 11 15 6 8 1027.5 - 0.0
21/08:00pm 17.8 14.9 10.9 64 3.7 E 17 24 9 13 1027.2 - 0.0
21/07:30pm 17.9 14.3 10.6 62 3.9 E 20 30 11 16 1026.9 - 0.0
21/07:00pm 18.1 14.8 9.7 58 4.4 E 17 26 9 14 1026.3 - 0.0
21/06:30pm 18.5 14.9 10.0 57 4.5 E 19 30 10 16 1025.8 - 0.0
21/06:00pm 18.8 15.1 9.5 54 4.9 E 19 28 10 15 1025.2 1025.1 0.0
21/05:30pm 19.5 14.6 8.5 49 5.7 E 24 33 13 18 1024.7 - 0.0
21/05:00pm 19.5 15.7 9.7 53 5.2 E 20 30 11 16 1024.3 - 0.0
21/04:30pm 20.4 14.2 9.2 48 5.9 E 32 41 17 22 1023.8 - 0.0
21/04:00pm 20.9 15.3 8.9 46 6.3 ENE 28 37 15 20 1023.3 - 0.0
21/03:30pm 22.3 17.3 8.2 40 7.4 E 24 35 13 19 1023.1 - 0.0
21/03:00pm 22.2 16.2 7.2 38 7.7 E 28 37 15 20 1023.1 1023.1 0.0
21/02:30pm 23.1 17.2 7.3 36 8.2 E 28 37 15 20 1023.0 - 0.0
21/02:00pm 23.7 18.8 8.4 37 8.1 ESE 24 30 13 16 1023.0 - 0.0
21/01:30pm 23.0 17.6 7.9 38 7.9 E 26 37 14 20 1023.2 - 0.0
21/01:00pm 21.9 16.9 8.1 41 7.2 ENE 24 33 13 18 1023.7 - 0.0
21/12:30pm 22.8 18.0 7.3 37 8.0 E 22 32 12 17 1024.0 - 0.0
21/12:00pm 21.3 17.3 8.3 43 6.8 E 19 30 10 16 1024.8 1024.7 0.0
21/11:30am 22.3 18.5 7.4 38 7.7 E 17 24 9 13 1025.0 - 0.0
21/11:00am 22.1 18.6 8.6 42 7.1 SE 17 26 9 14 1025.4 - 0.0
21/10:30am 21.9 18.2 7.8 40 7.3 ESE 17 30 9 16 1025.9 - 0.0
21/10:00am 21.5 16.9 8.0 42 7.0 E 22 32 12 17 1026.1 - 0.0
21/09:30am 21.3 18.2 8.7 44 6.7 SE 15 24 8 13 1026.5 - 0.0
21/09:00am 19.9 17.9 8.5 47 5.9 SE 9 17 5 9 1026.7 1026.6 0.0
21/08:30am 19.5 16.7 8.7 49 5.6 SSE 13 19 7 10 1026.8 - 0.0
21/08:00am 17.1 15.3 9.6 61 3.9 S 9 15 5 8 1026.7 - 0.0
21/07:30am 14.7 14.5 10.3 75 2.3 S 2 7 1 4 1026.3 - 0.0
21/07:00am 12.4 12.3 9.4 82 1.5 CALM 0 0 0 0 1026.3 - 0.0
21/06:30am 10.0 9.6 8.3 89 0.8 CALM 0 4 0 2 1025.7 - 0.0
21/06:00am 8.1 5.3 7.0 93 0.5 S 11 13 6 7 1025.5 1025.4 0.0
21/05:30am 10.5 10.1 8.4 87 1.0 CALM 0 0 0 0 1025.0 - 0.0
21/05:00am 9.9 8.2 8.5 91 0.7 SSW 7 9 4 5 1025.1 - 0.0
21/04:30am 10.1 9.4 8.7 91 0.7 SSW 2 6 1 3 1024.7 - 0.0
21/04:00am 8.5 6.8 7.4 93 0.5 SSW 6 9 3 5 1024.5 - 0.0
21/03:30am 8.7 7.7 7.4 91 0.6 SSW 2 9 1 5 1024.4 - 0.0
21/03:00am 10.3 8.0 9.1 92 0.6 SSW 11 13 6 7 1024.1 1024.1 0.0
21/02:30am 10.4 8.5 9.2 92 0.6 SSW 9 11 5 6 1024.4 - 0.0
21/02:00am 10.5 9.2 9.3 92 0.6 S 6 7 3 4 1024.7 - 0.0
21/01:30am 9.3 8.9 8.3 93 0.5 CALM 0 0 0 0 1025.1 - 0.0
21/01:00am 9.5 9.0 8.0 90 0.7 CALM 0 4 0 2 1025.2 - 0.0
21/12:30am 12.0 10.9 10.0 87 1.0 S 6 7 3 4 1025.1 - 0.0
21/12:00am 12.4 10.3 9.8 84 1.3 SSW 11 13 6 7 1025.0 1024.9 0.0
 
Date/Time
EST
Temp
°C
App
Temp
°C
Dew
Point
Rel
Hum
%
Delta-T
°C
Wind Press
QNH
hPa
Press
MSL
hPa
Rain
since 9 am
mm
Dir
 
Spd
km/h
Gust
km/h
Spd
kts
Gust
kts
20/11:30pm 11.9 11.3 9.1 83 1.4 SSW 2 7 1 4 1025.0 - 0.0
20/11:00pm 13.1 11.8 9.3 78 1.9 SSW 6 7 3 4 1024.8 - 0.0
20/10:30pm 14.5 12.3 9.2 70 2.7 S 11 13 6 7 1024.7 - 0.0
20/10:00pm 13.6 12.0 8.6 72 2.5 SE 7 9 4 5 1024.6 - 0.0
20/09:30pm 15.0 13.3 9.8 71 2.7 SE 9 11 5 6 1024.6 - 0.0
20/09:00pm 16.8 15.1 9.7 63 3.7 SE 9 15 5 8 1024.5 1024.4 0.0
20/08:30pm 17.8 15.3 9.6 58 4.3 ESE 13 19 7 10 1024.1 - 0.0
20/08:00pm 18.3 15.7 9.5 56 4.6 SE 13 19 7 10 1023.6 - 0.0
20/07:30pm 18.3 14.7 10.0 58 4.4 E 19 32 10 17 1022.9 - 0.0
20/07:00pm 18.4 14.8 9.9 57 4.5 E 19 26 10 14 1022.4 - 0.0
20/06:30pm 18.8 13.5 9.7 55 4.8 E 28 39 15 21 1021.8 - 0.0
20/06:00pm 19.0 13.6 9.5 54 5.0 ENE 28 37 15 20 1021.3 1021.3 0.0
20/05:30pm 19.4 13.9 9.3 52 5.3 ENE 28 43 15 23 1020.4 - 0.0
20/05:00pm 20.3 14.2 9.6 50 5.7 ENE 32 39 17 21 1019.4 - 0.0
20/04:30pm 21.2 15.9 9.9 48 6.1 E 28 37 15 20 1018.9 - 0.0
20/04:00pm 21.7 15.5 9.4 45 6.6 E 32 39 17 21 1018.3 - 0.0
20/03:30pm 22.8 17.5 9.9 44 7.0 E 28 37 15 20 1018.1 - 0.0
20/03:00pm 23.0 18.2 10.2 44 7.0 E 26 33 14 18 1017.8 1017.7 0.0
20/02:30pm 23.3 18.6 10.6 44 7.0 E 26 32 14 17 1017.9 - 0.0
20/02:00pm 23.0 17.8 10.4 45 6.9 E 28 37 15 20 1017.9 - 0.0
20/01:30pm 25.1 20.5 9.8 38 8.4 E 24 32 13 17 1017.9 - 0.0
20/01:00pm 24.4 21.4 7.7 34 8.8 NE 13 22 7 12 1018.4 - 0.0
20/12:30pm 24.1 22.0 9.8 40 7.8 E 11 17 6 9 1018.8 - 0.0
20/12:00pm 23.6 21.6 10.1 42 7.4 ESE 11 19 6 10 1019.4 1019.3 0.0
20/11:30am 23.3 21.8 10.4 44 7.1 SSE 9 17 5 9 1019.9 - 0.0
20/11:00am 23.0 20.8 10.9 46 6.7 E 13 17 7 9 1020.4 - 0.0
20/10:30am 22.1 20.2 11.7 51 5.8 ENE 13 19 7 10 1020.9 - 0.0
20/10:00am 21.3 20.3 12.2 56 5.1 E 9 15 5 8 1021.4 - 0.0
20/09:30am 20.2 19.6 12.3 60 4.4 S 7 11 4 6 1021.7 - 0.0
20/09:00am 18.5 18.4 12.2 66 3.5 ESE 4 9 2 5 1021.9 1021.9 0.0
20/08:30am 17.1 16.5 11.8 71 2.9 SW 6 9 3 5 1021.9 - 0.0
20/08:00am 15.6 14.4 11.5 76 2.2 SW 9 11 5 6 1021.8 - 0.0
20/07:30am 13.9 14.1 10.6 80 1.7 CALM 0 7 0 4 1021.4 - 0.0
20/07:00am 12.4 12.6 10.5 88 1.0 CALM 0 0 0 0 1021.0 - 0.0
20/06:30am 10.5 10.4 9.5 93 0.5 CALM 0 7 0 4 1020.5 - 0.0
20/06:00am 9.7 9.4 8.7 93 0.5 CALM 0 0 0 0 1020.2 1020.1 0.0
20/05:30am 9.5 9.2 8.7 95 0.4 CALM 0 0 0 0 1019.6 - 0.0
20/05:00am 9.7 9.5 8.9 95 0.4 CALM 0 0 0 0 1019.1 - 0.0
20/04:30am 9.5 9.2 8.5 93 0.5 CALM 0 0 0 0 1018.8 - 0.0
20/04:00am 9.5 7.9 8.7 95 0.4 NW 7 9 4 5 1018.5 - 0.0
20/03:30am 9.1 8.3 8.3 95 0.4 WNW 2 7 1 4 1018.4 - 0.0
20/03:00am 8.9 8.1 8.3 96 0.3 NW 2 9 1 5 1018.5 1018.4 0.0
20/02:30am 9.3 9.0 8.5 95 0.4 CALM 0 0 0 0 1018.6 - 0.0
20/02:00am 9.7 9.5 9.1 96 0.3 CALM 0 0 0 0 1018.8 - 0.0
20/01:30am 10.0 9.8 9.2 95 0.4 CALM 0 0 0 0 1018.9 - 0.0
20/01:00am 10.3 9.8 9.3 93 0.5 NW 2 6 1 3 1018.9 - 0.0
20/12:30am 10.2 8.2 8.8 91 0.7 NNW 9 11 5 6 1019.2 - 0.0
20/12:00am 11.7 11.7 9.9 89 0.9 CALM 0 0 0 0 1019.2 1019.1 0.0
 
Date/Time
EST
Temp
°C
App
Temp
°C
Dew
Point
Rel
Hum
%
Delta-T
°C
Wind Press
QNH
hPa
Press
MSL
hPa
Rain
since 9 am
mm
Dir
 
Spd
km/h
Gust
km/h
Spd
kts
Gust
kts
19/11:30pm 12.1 12.1 9.7 85 1.2 CALM 0 0 0 0 1019.3 - 0.0
19/11:00pm 12.4 12.0 9.8 84 1.3 NW 2 7 1 4 1019.3 - 0.0
19/10:30pm 11.9 10.6 9.9 87 1.0 NNW 7 7 4 4 1019.3 - 0.0
19/10:00pm 12.6 12.4 10.3 86 1.2 E 2 9 1 5 1019.3 - 0.0
19/09:30pm 13.9 12.8 10.7 81 1.7 E 7 11 4 6 1019.3 - 0.0
19/09:00pm 16.2 15.2 12.2 77 2.2 E 9 9 5 5 1019.2 1019.1 0.0
19/08:30pm 16.8 15.8 12.2 74 2.5 ENE 9 11 5 6 1019.0 - 0.0

Other Formats:

Comma delimited format used in spreadsheet applications
http://www.bom.gov.au/fwo/IDQ60801/IDQ60801.94568.axf

JavaScript Object Notation format (JSON) in row-major order
http://www.bom.gov.au/fwo/IDQ60801/IDQ60801.94568.json